Other Surface Observations
Issued by NWS Tucson, AZ

Home | Current Version | Previous Version | Text Only | Print | Product List | Glossary On
Versions: 1 2 3 4 5 6 7 8 9 10 11 12 13 14 15 16 17 18 19 20 21 22 23 24 25 26 27 28 29 30 31 32 33 34 35 36 37 38 39 40 41 42 43 44 45 46 47 48 49 50
000
SXUS55 KTWC 111916
OSOTWC

WEATHER ROUNDUP FOR SOUTHEAST ARIZONA
NATIONAL WEATHER SERVICE TUCSON AZ
1215 PM MST FRI JUL 11 2014

AZZ504>506-514-112015-
LOCATION       SKY/WX    TMP DP  RH WIND       PRES   REMARKS
TUCSON         SUNNY     94  58  29 VRB5      30.01F
DAVIS-MONTHAN  SUNNY     91  59  33 VRB5      30.00F
CHILDRENS PARK N/A       90  59  35 NW2               PIMA CO DEQ
ALVERNON/22ND  N/A      N/A N/A N/A N/A               PIMA CO DEQ
CHERRY/GLENN   N/A      N/A N/A N/A N/A               PIMA CO DEQ
TANGERINE      N/A       91 N/A N/A W3                PIMA CO DEQ
CONTL RANCH    N/A       93  60  33 N3                PIMA CO DEQ
GRANT/1ST      N/A       90  59  35 NW2               PIMA CO DEQ
CRAYCROFT/22ND N/A      N/A N/A N/A N/A               PIMA CO DEQ
GOLFLINKS/KOLB N/A      N/A N/A N/A N/A               PIMA CO DEQ
AJO/12TH       N/A       91  59  34 W3                PIMA CO DEQ
SAGUARO EAST   N/A      N/A N/A N/A N/A               PIMA CO DEQ
FAIRGROUNDS    N/A       89 N/A N/A NW3               PIMA CO DEQ
SAGUARO        N/A       94  60  32 W5G10             *SABINO CYN
SAN CARLOS     N/A       97  61  31 SW6G12            *SAN CARLOS
GREEN VALLEY   N/A       89  57  34 NE3               PIMA CO DEQ
HORSE CAMP CYN N/A       88  59  38 W4G11             *ARAVAIPA CYN
RINCON MTNS    N/A       72  55  56 S2                *NR MANNING CAMP
$$

AZZ509>511-112015-
LOCATION       SKY/WX    TMP DP  RH WIND       PRES   REMARKS
SAFFORD        MOSUNNY   94  57  28 CALM      29.98F
STRAY HORSE    N/A       80  47  31 S4G10             *
TRAIL CABIN    N/A       81  50  34 N3G18             *N OF GRANVILLE
BLACK HILLS    N/A       95  57  28 W5G14             *N OF FT THOMAS
DRY LAKE       N/A       80  55  43 SW6G12            *NATANES MTNS
NOON CREEK     N/A       86  56  36 NE5G11            *PINALENO MTNS
COLUMBINE      N/A       66  54  66 N2                *PINALENO MTNS
GUTHRIE        N/A       76  55  48 SW15G22           *SW OF GUTHRIE
$$

AZZ502-503-513-112015-
LOCATION       SKY/WX    TMP DP  RH WIND       PRES   REMARKS
NOGALES        SUNNY     88  57  34 MISG      30.09F
SELLS          N/A       91  65  43 W6                *
SASABE         N/A       90  60  37 NE4G12            *ALTAR VLY
HOPKINS        N/A       74  57  55 SW5G11            *SANTA RITA MTNS
CARR CYN       N/A       83  57  41 NE5               *W OF HEREFORD
$$

AZZ507-508-512-112015-
LOCATION       SKY/WX    TMP DP  RH WIND       PRES   REMARKS
SIERRA VISTA   MOSUNNY   84  55  37 N7        30.15F
DOUGLAS        SUNNY     85  57  38 W5        30.11F
EMPIRE MTNS    N/A       85  57  39 N4G12             *LAS CIENEGAS NCA
MULESHOE RANCH N/A       85  56  37 SW4               *PRESERVE
HEADQUARTERS   N/A       85  56  37 SW3G12            *CHIRICAHUA MTNS
$$

.............................NOTES.............................
THIS IS AN AUTOMATED COLLECTIVE WITH MINIMAL QUALITY CONTROL.
PIMA CO DEQ SITES HAVE NONSTANDARD WIND SENSOR HEIGHTS.
PIMA CO DEQ SITES DO NOT REPORT WIND GUSTS.
* INDICATES WIND SENSORS LOCATED AT 20 FEET INSTEAD OF 33 FEET.
..............................KEY..............................
SKY/WX - SKY CONDITION/WEATHER
TMP    - TEMPERATURE IN FAHRENHEIT
DP     - DEWPOINT IN FAHRENHEIT
RH     - RELATIVE HUMIDITY IN PERCENT
WIND   - DIRECTION AND SPEED IN MILES PER HOUR (MPH)
VRB    - VARIABLE WIND DIRECTION
PRES   - MEAN SEA LEVEL PRESSURE IN INCHES OF MERCURY
         F - FALLING PRESSURE   R - RISING PRESSURE
         S - STEADY PRESSURE
VSB    - VISIBILITY IN MILES
HX     - HEAT INDEX IN FAHRENHEIT
WCI    - WIND CHILL INDEX IN FAHRENHEIT
N/A    - NOT AVAILABLE
AFB    - AIR FORCE BASE
         DAVIS-MONTHAN IS DAVIS-MONTHAN AIR FORCE BASE
CYN    - CANYON
MTNS   - MOUNTAINS
NCA    - NATIONAL CONSERVATION AREA
NR     - NEAR
VLY    - VALLEY
CONTL  - CONTINENTAL
PIMA CO DEQ - PIMA COUNTY DEPT OF ENVIRONMENTAL QUALITY



USA.gov is the U.S. government's official web portal to all federal, state and local government web resources and services.